Yeovilton, United Kingdom

7:23 PM BST on June 20, 2018 (GMT +0100)
Yeovil Radar Navy

Weather History for EGDY - October, 2017

Change the Weather History Date:

Thursday, October 5, 2017

  Actual Average Record
Temperature  
Mean Temperature 54 °F -  
Max Temperature 61 °F 56 °F 68 °F (2011)
Min Temperature 46 °F 43 °F 33 °F (1999)
Degree Days  
Heating Degree Days 10    
Growing Degree Days 4 (Base 50)    
Moisture  
Dew Point 49 °F    
Average Humidity 74    
Maximum Humidity 95    
Minimum Humidity 47    
Precipitation  
Precipitation 0.03 in - - ()
Sea Level Pressure  
Sea Level Pressure 30.11 in    
Wind  
Wind Speed 12 mph ()    
Max Wind Speed 21 mph    
Max Gust Speed 32 mph    
Visibility 8.9 miles    
Events Rain    
Averages and records for this station are not official NWS values.
T = Trace of Precipitation, MM = Missing Value Source: Averaged Metar Reports

Daily Weather History Graph

Daily Weather History Graph

Search for Another Location

Airport or City:

Astronomy

Oct. 05, 2017 Rise Set
Actual Time 7:17 AM BST 6:39 PM BST
Civil Twilight 6:44 AM BST 7:12 PM BST
Nautical Twilight 6:06 AM BST 7:50 PM BST
Astronomical Twilight 5:27 AM BST 8:29 PM BST
Moon 6:58 PM BST (10/5) 6:31 AM BST (10/5)
Length of Visible Light 12h 27m
Length of Day
11h 21m
Full, 100% of the Moon is Illuminated
Oct 5
Full
Oct 5
Full
Oct 12
Last Quarter
Oct 19
New
Oct 27
First Quarter

Hourly Weather History & Observations

Time (BST) Temp. Windchill Dew Point Humidity Pressure Visibility Wind Dir Wind Speed Gust Speed Precip Events Conditions
12:00 AM 55 °F - 49 °F 72% 30.09 in 12 mi WSW 12.7 mph - -   Mostly Cloudy
12:50 AM 55.4 °F - 50.0 °F 82% 30.06 in 6.2 mi WSW 9.2 mph - N/A   Overcast
1:00 AM 56 °F - 49 °F 72% 30.08 in 19 mi WSW 9.2 mph - -   Overcast
1:50 AM 55.4 °F - 50.0 °F 82% 30.04 in 6.2 mi WSW 8.1 mph - N/A   Overcast
2:00 AM 56 °F - 50 °F 75% 30.05 in 16 mi WSW 8.1 mph - -   Overcast
2:50 AM 57.2 °F - 51.8 °F 82% 30.01 in 6.2 mi SW 10.4 mph - N/A   Mostly Cloudy
3:00 AM 56 °F - 52 °F 80% 30.02 in 16 mi SW 10.4 mph - -   Mostly Cloudy
3:50 AM 57.2 °F - 53.6 °F 88% 29.98 in 6.2 mi WSW 20.7 mph 32.2 mph N/A   Mostly Cloudy
4:00 AM 58 °F - 53 °F 78% 29.99 in 9 mi WSW 20.7 mph - -   Mostly Cloudy
4:50 AM 59.0 °F - 55.4 °F 88% 29.98 in 6.2 mi West 17.3 mph - N/A   Mostly Cloudy
5:00 AM 59 °F - 55 °F 81% 29.99 in 12 mi West 17.3 mph - -   Mostly Cloudy
5:50 AM 59.0 °F - 55.4 °F 88% 29.98 in 6.2 mi West 18.4 mph - N/A   Mostly Cloudy
6:00 AM 59 °F - 55 °F 83% 29.99 in 12 mi West 18.4 mph - -   Mostly Cloudy
6:50 AM 59.0 °F - 57.2 °F 94% 29.98 in 3.1 mi West 16.1 mph - N/A Rain Light Rain
7:00 AM 59 °F - 57 °F 90% 29.99 in 3 mi West 16.1 mph - - Rain Light Rain
7:50 AM 59.0 °F - 57.2 °F 94% 29.98 in 2.8 mi West 15.0 mph - N/A Rain Light Rain
8:00 AM 59 °F - 58 °F 94% 30.00 in 3 mi West 15.0 mph - - Rain Light Rain
8:50 AM 59.0 °F - 57.2 °F 94% 30.01 in 6.2 mi West 16.1 mph - N/A Rain Light Rain
9:00 AM 59 °F - 58 °F 95% 30.03 in 6 mi West 16.1 mph - - Rain Light Rain
9:50 AM 59.0 °F - 55.4 °F 88% 30.06 in 6.2 mi WNW 10.4 mph - N/A   Mostly Cloudy
10:00 AM 59 °F - 55 °F 82% 30.07 in 12 mi WNW 10.4 mph - - Rain Light Rain
10:50 AM 59.0 °F - 50.0 °F 72% 30.09 in 6.2 mi NW 12.7 mph - N/A   Mostly Cloudy
11:50 AM 59.0 °F - 50.0 °F 72% 30.12 in 6.2 mi NW 12.7 mph - N/A   Scattered Clouds
12:00 PM 59 °F - 49 °F 62% 30.13 in 16 mi NW 12.7 mph - -   Partly Cloudy
12:50 PM 59.0 °F - 46.4 °F 63% 30.12 in 6.2 mi NW 15.0 mph - N/A   Scattered Clouds
1:00 PM 59 °F - 47 °F 55% 30.15 in 16 mi NW 15.0 mph - -   Partly Cloudy
1:50 PM 60.8 °F - 44.6 °F 55% 30.15 in 6.2 mi WNW 15.0 mph - N/A   Scattered Clouds
2:00 PM 60 °F - 45 °F 47% 30.16 in 16 mi WNW 15.0 mph - -   Scattered Clouds
2:50 PM 60.8 °F - 46.4 °F 59% 30.15 in 6.2 mi WNW 16.1 mph - N/A   Partly Cloudy
3:00 PM 61 °F - 46 °F 47% 30.17 in 16 mi WNW 16.1 mph - -   Scattered Clouds
3:50 PM 60.8 °F - 46.4 °F 59% 30.15 in 6.2 mi WNW 16.1 mph - N/A   Partly Cloudy
4:00 PM 60 °F - 46 °F 49% 30.18 in 16 mi WNW 16.1 mph - -   Scattered Clouds
4:50 PM 59.0 °F - 44.6 °F 59% 30.18 in 6.2 mi WNW 15.0 mph - N/A   Partly Cloudy
5:00 PM 59 °F - 45 °F 49% 30.19 in 16 mi WNW 15.0 mph - -   Scattered Clouds
5:50 PM 57.2 °F - 42.8 °F 59% 30.18 in 6.2 mi WNW 13.8 mph - N/A   Unknown
6:00 PM 57 °F - 43 °F 48% 30.21 in 17 mi WNW 13.8 mph - -  
6:50 PM 53.6 °F - 44.6 °F 72% 30.21 in 6.2 mi WNW 9.2 mph - N/A   Unknown
7:00 PM 53 °F - 44 °F 62% 30.23 in 25 mi WNW 9.2 mph - -  
7:50 PM 50.0 °F - 42.8 °F 76% 30.24 in 6.2 mi WNW 8.1 mph - N/A   Unknown
8:50 PM 50.0 °F - 42.8 °F 76% 30.24 in 6.2 mi WNW 11.5 mph - N/A   Unknown
9:00 PM 50 °F - 43 °F 71% 30.26 in 31 mi WNW 11.5 mph - -  
9:50 PM 48.2 °F - 42.8 °F 82% 30.27 in 6.2 mi West 5.8 mph - N/A   Unknown
10:00 PM 48 °F - 43 °F 76% 30.27 in 28 mi West 5.8 mph - -  
10:50 PM 50.0 °F - 44.6 °F 82% 30.27 in 6.2 mi West 6.9 mph - N/A   Unknown
11:00 PM 49 °F - 44 °F 76% 30.28 in 25 mi West 6.9 mph - -  
11:50 PM 46.4 °F 42.4 °F 42.8 °F 87% 30.27 in 6.2 mi WNW 8.1 mph - N/A   Unknown